Regional Weather Roundup
Issued by NWS

Home | Current Version | Previous Version | Text Only | Print | Product List | Glossary On
Versions: 1 2 3 4 5 6 7 8 9 10 11 12 13 14 15 16 17 18 19 20 21 22 23 24 25 26 27 28 29 30 31 32 33 34 35 36 37 38 39 40 41 42 43 44 45 46 47 48 49
000
ASUS45 KPSR 281210
RWRAZ

ARIZONA HOURLY REGIONAL WEATHER ROUNDUP
NATIONAL WEATHER SERVICE PHOENIX AZ
500 AM MST SUN MAY 28 2017

NOTE: FAIR INDICATES FEW OR NO CLOUDS BELOW 12,000 FEET WITH NO
SIGNIFICANT WEATHER AND/OR OBSTRUCTIONS TO VISIBILITY.

AZZ001>003-036-281300-
NORTHWEST ARIZONA

CITY           SKY/WX    TMP DP  RH WIND       PRES   REMARKS
BULLHEAD CITY  CLEAR     77  37  24 CALM      29.88S
KINGMAN        CLEAR     54  22  28 MISG      30.05R
6HR MIN TEMP:  51; 6HR MAX TEMP:  64;

$$

AZZ004>008-015-016-018-281300-
NORTH CENTRAL ARIZONA

CITY           SKY/WX    TMP DP  RH WIND       PRES   REMARKS
GRAND CANYON   PTCLDY    34  25  69 CALM      30.26R
6HR MIN TEMP:  33; 6HR MAX TEMP:  42;

WILLIAMS       CLEAR     39  27  60 S8        30.22S WCI  34
PRESCOTT       CLEAR     48  29  47 SW5       30.13R
6HR MIN TEMP:  48; 6HR MAX TEMP:  60;

FLAGSTAFF      CLEAR     36  24  62 CALM      30.25R
6HR MIN TEMP:  36; 6HR MAX TEMP:  47;

PAYSON         CLEAR     61  21  21 NE5       30.14R
PAGE           CLEAR     62  23  22 SW6       30.15R
6HR MIN TEMP:  60; 6HR MAX TEMP:  72;

$$

AZZ009>014-017-281300-
NORTHEAST ARIZONA

CITY           SKY/WX    TMP DP  RH WIND       PRES   REMARKS
WINSLOW        CLEAR     43  23  45 W5        30.16R
6HR MIN TEMP:  43; 6HR MAX TEMP:  68;

SAINT JOHNS    CLEAR     43  20  39 CALM      30.17R
6HR MIN TEMP:  42; 6HR MAX TEMP:  63;

WINDOW ROCK    CLEAR     37  20  50 CALM      30.27R
6HR MIN TEMP:  36; 6HR MAX TEMP:  52;

SHOW LOW       CLEAR     41  16  36 CALM      30.20S
$$

AZZ540-542>544-546-548-281300-
GREATER PHOENIX AREA

CITY           SKY/WX    TMP DP  RH WIND       PRES   REMARKS
PHOENIX        PTCLDY    74  39  28 CALM      29.86R
6HR MIN TEMP:  73; 6HR MAX TEMP:  86;

BUCKEYE        CLEAR     64  25  22 NW8       29.87S
LUKE AFB       CLEAR     70  34  26 CALM      29.86R
6HR MIN TEMP:  69; 6HR MAX TEMP:  80;

DEER VALLEY    CLEAR     70  28  21 NE9       29.88R
6HR MIN TEMP:  69; 6HR MAX TEMP:  77;

SCOTTSDALE     CLEAR     71  38  29 CALM      29.90R
6HR MIN TEMP:  69; 6HR MAX TEMP:  83;

MESA-GATEWAY   PTCLDY    66  25  20 E7        29.89S
$$

AZZ539-553-281300-
SOUTHWEST MARICOPA COUNTY AND PINAL COUNTY

CITY           SKY/WX    TMP DP  RH WIND       PRES   REMARKS
CASA GRANDE    CLEAR     62  26  25 CALM      29.90S
6HR MIN TEMP:  62; 6HR MAX TEMP:  79;

GILA BEND      FAIR      68  28  22 SE7       29.86R
6HR MIN TEMP:  68; 6HR MAX TEMP:  81;

$$

AZZ503-504-507>509-281300-
SOUTHEAST ARIZONA

CITY           SKY/WX    TMP DP  RH WIND       PRES   REMARKS
TUCSON         CLEAR     63  20  19 S5        29.99R
6HR MIN TEMP:  63; 6HR MAX TEMP:  74;

DAVIS-MONTHAN  CLEAR     60  18  19 CALM      29.98R
6HR MIN TEMP:  60; 6HR MAX TEMP:  72;

NOGALES        CLEAR     53  24  32 CALM      30.04S
6HR MIN TEMP:  52; 6HR MAX TEMP:  68;

SIERRA VISTA   CLEAR     61  15  16 SW8       30.09S
6HR MIN TEMP:  58; 6HR MAX TEMP:  66;

DOUGLAS        CLEAR     48  10  21 NW3       30.06S
6HR MIN TEMP:  46; 6HR MAX TEMP:  69;

SAFFORD        CLEAR     53   9  17 CALM      29.99R
6HR MIN TEMP:  53; 6HR MAX TEMP:  71;

$$

AZZ532-281300-
SOUTHWEST ARIZONA

CITY           SKY/WX    TMP DP  RH WIND       PRES   REMARKS
YUMA           CLEAR     69  44  40 CALM      29.85R
6HR MIN TEMP:  69; 6HR MAX TEMP:  79;

$$

CAZ041-043-047-048-061-525>527-560>570-281300-
SOUTHERN CALIFORNIA

CITY           SKY/WX    TMP DP  RH WIND       PRES   REMARKS
DOWNTOWN L.A.  CLEAR     60  55  83 CALM      29.99S
6HR MIN TEMP:  60; 6HR MAX TEMP:  63;

L.A. AIRPORT   PTCLDY    58  56  93 S6        30.00R
6HR MIN TEMP:  58; 6HR MAX TEMP:  61;

SAN DIEGO      PTCLDY    59  53  80 N3        30.02S
6HR MIN TEMP:  59; 6HR MAX TEMP:  62;

BURBANK        CLEAR     57  48  72 CALM      29.99S
6HR MIN TEMP:  57; 6HR MAX TEMP:  63;

ONTARIO        CLEAR     56  49  77 CALM      30.00S
6HR MIN TEMP:  55; 6HR MAX TEMP:  61;

RIVERSIDE      CLEAR     55  51  86 CALM      30.00S
6HR MIN TEMP:  55; 6HR MAX TEMP:  60;

PALM SPRINGS   CLEAR     67  52  58 CALM      29.89S
6HR MIN TEMP:  67; 6HR MAX TEMP:  78;

EL CENTRO NAS  CLEAR     68  33  27 W5        29.85R
6HR MIN TEMP:  67; 6HR MAX TEMP:  78;

IMPERIAL       CLEAR     71  47  42 N8        29.83R
6HR MIN TEMP:  69; 6HR MAX TEMP:  77;

BLYTHE         CLEAR     69  28  21 SW5       29.85R
6HR MIN TEMP:  69; 6HR MAX TEMP:  82;

NEEDLES        CLEAR     74  22  14 E5        29.90R
6HR MIN TEMP:  73; 6HR MAX TEMP:  86;

$$

NVZ020-UTZ003-281300-
SOUTHERN NEVADA-UTAH

CITY           SKY/WX    TMP DP  RH WIND       PRES   REMARKS
LAS VEGAS      CLEAR     74  23  15 SW5       30.00R
6HR MIN TEMP:  74; 6HR MAX TEMP:  84;

SALT LAKE CITY CLEAR     51  41  68 CALM      30.22R
6HR MIN TEMP:  51; 6HR MAX TEMP:  61;

$$

NMZ009-TXZ055-281300-
NEW MEXICO-WEST TEXAS

CITY           SKY/WX    TMP DP  RH WIND       PRES   REMARKS
ALBUQUERQUE    PTCLDY    56  42  59 E21G30    30.20R
6HR MIN TEMP:  56; 6HR MAX TEMP:  69;

EL PASO        MOCLDY    65  27  23 NW8       30.08R
6HR MIN TEMP:  64; 6HR MAX TEMP:  80;

$$


........................KEY........................
SKY/WX - SKY CONDITION/WEATHER
TMP    - TEMPERATURE IN FAHRENHEIT
DP     - DEW POINT IN FAHRENHEIT
RH     - RELATIVE HUMIDITY IN PERCENT
WIND   - DIRECTION AND SPEED IN MILES PER HOUR (MPH)
VRB    - VARIABLE WIND DIRECTION
PRES   - MEAN SEA LEVEL PRESSURE IN INCHES OF MERCURY
         F - FALLING PRESSURE   R - RISING PRESSURE
         S - STEADY PRESSURE
VSB    - VISIBILITY IN MILES
HX     - HEAT INDEX IN FAHRENHEIT
WCI    - WIND CHILL INDEX IN FAHRENHEIT
TC     - TEMPERATURE IN CELSIUS WHICH IS ALSO KNOWN AS
         TEMPERATURE IN CENTIGRADE
AFB    - AIR FORCE BASE
         LUKE AFB IS LUKE AIR FORCE BASE
         DAVIS-MONTHAN IS DAVIS-MONTHAN AIR FORCE BASE
NAS    - NAVAL AIR STATION
         EL CENTRO NAS IS EL CENTRO NAVAL AIR STATION
N/A    - NOT AVAILABLE





USA.gov is the U.S. government's official web portal to all federal, state and local government web resources and services.